Volver al catálogo

STARLINK-33926

ActivoComunicacionesSSO
NORAD 64147·PAYLOAD·🇺🇸 United States

Lanzado May 27, 2025 desde Vandenberg Space Force Base

Loading…

Próximos Pases (próximas 24 horas)

TLE

ActualizadoSource: CelesTrak SupGP

Época: Sep 15, 2026, 03:12 UTC

1 64147C 25112B   26258.13381944  .00005118  00000+0  15885-3 0  2581
2 64147  97.2835 305.3227 0000890  91.5203  94.2878 15.33440314    14

Sigue STARLINK-33926 en tiempo real con AllMySat

Download on the App Store